Regional Weather Roundup
Issued by NWS Midland/Odessa, TX

Skip options and go directly to product.
Home | Oldest Version | Previous Version | Current Version | All | Graphics & Text | Save Text | Print | Product List | Glossary On

Skip product version selection by date and time.   
177
ASUS44 KMAF 180510
RWRMAF
MIDLAND AREA WEATHER ROUNDUP
NATIONAL WEATHER SERVICE MIDLAND TX
1200 AM CDT FRI APR 18 2014

...IN SOUTHWEST TEXAS AND SOUTHEAST NEW MEXICO...

CITY           SKY/WX    TMP DP  RH WIND       PRES   REMARKS
ALPINE         CLEAR     55  30  39 CALM      30.24R
ANDREWS        FAIR      50  43  76 E12       30.23R
ARTESIA        CLEAR     59  36  41 SE12      30.18R
BIG SPRING     CLOUDY    54  47  78 NE10G18   30.24R
CARLSBAD       CLEAR     60  39  45 E10       30.16R
DRYDEN           N/A     63  45  51 NE8       30.12R
FORT STOCKTON  CLEAR     63  44  50 E10       30.16R
GUAD PASS      CLEAR     57  29  34 NE26      30.21S
HOBBS          CLEAR     50  41  71 E13G18    30.22S
MARFA          CLEAR     54  30  40 NE7       30.21R
MIDLAND AIRPK  CLEAR     54  46  76 NE12      30.22R
MIDLAND INTL   CLEAR     54  46  74 E15       30.21R
ODESSA         CLEAR     54  46  74 E14       30.21R
PECOS          CLEAR     61  46  57 NE16      30.16R
PRESIDIO       FAIR      72  28  19 N10G17    30.06R
SEMINOLE       CLEAR     49  42  75 E9        30.24R
SNYDER         CLOUDY    52  49  90 NE10      30.23S
WINK           CLEAR     59  46  62 E18G25    30.17R
$$
...OTHER STATIONS IN TEXAS...

CITY           SKY/WX    TMP DP  RH WIND       PRES   REMARKS
ABILENE        CLOUDY    55  51  86 N9        30.21R
AMARILLO       PTCLDY    38  32  79 SE8       30.25S WCI  32
AUSTIN         CLOUDY    61  60  97 CALM      30.16S FOG
BROWNSVILLE    CLOUDY    70  67  90 NE6       30.07R
CORPUS CHRISTI DRIZZLE   67  62  84 E15       30.12R
DALLAS FTW     LGT RAIN  58  54  86 E5        30.21R FOG
DEL RIO        PTCLDY    67  58  72 E16       30.12R
EL PASO        CLEAR     66  29  24 E14G22    30.09S
HOUSTON INT    MOCLDY    63  54  72 NE6       30.15S
LUBBOCK        CLEAR     43  37  79 E7        30.23S WCI  39
SAN ANGELO     CLOUDY    58  55  90 NE10      30.20R
SAN ANTONIO    LGT RAIN  63  61  93 E5        30.17R FOG
WACO           LGT RAIN  60  57  89 N9        30.18R
WICHITA FALLS  NOT AVBL
$$
...OTHER LOCATIONS IN NEW MEXICO...

CITY           SKY/WX    TMP DP  RH WIND       PRES   REMARKS
ALAMAGORDO     CLEAR     61  25  25 W7        30.11S
ALBUQUERQUE    CLEAR     58  25  28 E21       30.14R
CANNON AFB     CLEAR     42  36  79 E9        30.22S WCI  37
CLOVIS         CLEAR     39  32  75 SE7       30.25S WCI  34
HOLLOMAN AFB   CLEAR     60  26  27 VRB2      30.10R
ROSWELL        CLEAR     55  33  43 E8        30.17R
RUIDOSO        CLEAR     46  25  42 S3        30.30R
SANTA FE       CLEAR     49  27  42 SE14      30.20R
TRUTH OR CONSE CLEAR     61  20  20 SE7       30.10R
TUCUMCARI      CLEAR     45  33  63 E6        30.20R
$$

USA.gov is the U.S. government's official web portal to all federal, state and local government web resources and services.